Location: ??????
(41.3164°N, 22.6615°E)
Time: 09:17:03
(UTC+00:00)

Cosmos 1269 Rocket - Pass Details

Date: 16 October 2021
Orbit: 773 x 778 km, 74.1° (Epoch: 02 December)

Event Time Altitude Azimuth Distance (km) Brightness Sun altitude
Rises 17:24:42 0° 344° (NNW) 3,267 7.5 -19.1°
Reaches altitude 10° 17:27:08 10° 348° (NNW) 2,334 6.7 -19.6°
Maximum altitude 17:32:22 59° 68° (ENE) 898 4.0 -20.6°
Enters shadow 17:34:01 40° 125° (SE) 1,128 4.4 -20.9°
